Погода в Варберге

Швеция     57°07′25″N   12°16′11″E
темп.,
°C
ветер,
м/с
пор.,
м/с
влажн.,
%
обл.,
%
осадки,
мм/ч
давл.,
гПа
погр.,
м
16 мая, вс
вс1623:00+10ю568097 0.0 1003403
02:00+10юв458239 0.0 1003278
05:00+9вюв4587100 0.0 1003213
08:00+10вюв3483100 0.1 1002300
11:00+12ююв1377100 0.1 1002214
14:00+11ююв2382100 0.6 1001200
17:00+11ююв568751 2.4 1001338
20:00+11ю578410 2.7 1000255
17 мая, пн
пн1723:00+11юв69865 0.3 1001382
02:00+10ююв789220 0.4 1001356
05:00+10ююв67896 0.1 1000376
08:00+10ююв568999 0.1 1001398
11:00+11ю668695 0.4 1001402
14:00+11ююз558695 0.5 1002384
17:00+11ююз45805 0.0 1002317
20:00+11ю45795 0.0 1002195
18 мая, вт
вт1823:00+11ю46825 0.0 1003128
02:00+11ююз338436 0.1 100370
05:00+11юв118572 0.3 100443
08:00+11в018367 0.4 1005158
11:00+11сз558014 0.3 1006362
14:00+11сз777538 0.3 1006437
17:00+11сз7871100 0.0 1007726
20:00+11сз7872100 0.0 1008720
19 мая, ср
ср1923:00+11зсз81075100 0.0 1008732
02:00+10з897774 0.0 1008626
05:00+10з79760 0.0 1008622
08:00+10зюз678452 0.0 1008622
11:00+10з678343 0.1 1009665
14:00+11зюз78725 0.3 1009903
17:00+11юз68725 0.3 1008837
20:00+11зюз687590 1.0 1007885
20 мая, чт
чт2023:00+11зюз1011755 0.6 10061040
02:00+9зюз101182100 0.9 1006963
05:00+9зюз101276100 0.6 10051236
08:00+9зюз111280100 1.4 10041102
11:00+10з111279100 0.3 10041097
14:00+11з12127354 0.4 1005975
17:00+11з1012605 0.0 10051221
20:00+10з8106315 0.0 10051177